[[{"header":{"parameterUnit":"m.s-1","parameterCategory":1,"la1":30.2991,"la2":30.254,"lo1":-89.0895,"lo2":-89.0444,"dy":0.0017,"dx":0.0017,"nx":28,"ny":28,"refTime":"2024-06-04T21:00:00:Z","depth":0,"parameterNumber":2,"parameterNumberName":"U-component_of_WINDS"},"data":[0,0,0,0,0,0,0,0,0,0,0,0,0,0,0,0,0,0,0,0,0,0,0,0,0,0,0,0,0,0,0,0,0,0,0,0,0,0,0,0,0,0,0,0,0,0,0,0,0,0,0,0,0,0,0,0,0,0,-2.0139,-2.014,0,-2.0153,-2.0153,-2.0153,-2.0139,-2.0138,-2.0138,-2.0137,-2.0151,-2.0152,-2.0153,0,0,0,0,0,0,0,0,0,0,0,0,0,-2.01,-2.0101,-2.0139,-2.014,-2.014,-2.0153,-2.0153,-2.0154,-2.0139,-2.0138,-2.0138,-2.0137,-2.0151,-2.0152,-2.0153,0,0,0,0,0,0,0,0,0,0,0,0,0,-2.0116,-2.0102,-2.0139,-2.0134,-2.0134,-2.0153,-2.0153,-2.0154,-2.0139,-2.0138,-2.0137,-2.0137,-2.015,-2.0152,-2.0153,-2.0178,0,0,-2.0157,-2.0157,0,0,0,0,0,0,0,0,-2.0115,-2.0118,-2.0135,-2.0135,-2.0134,-2.0143,-2.0145,-2.0162,-2.0139,-2.0137,-2.0137,-2.0136,-2.0149,-2.015,-2.0155,-2.0178,-2.0179,-2.0157,-2.0158,-2.0158,-2.0159,0,0,0,0,0,0,0,-2.0114,-2.0117,-2.0145,-2.0135,-2.0135,-2.0131,-2.0132,-2.0148,-2.0148,-2.0137,-2.0136,-2.0138,-2.0149,-2.0154,-2.0155,-2.0179,-2.0157,-2.0158,-2.0159,-2.0159,-2.0225,-2.0225,0,0,0,0,0,0,-2.0114,-2.0116,-2.0144,-2.0145,-2.0122,-2.0132,-2.0134,-2.0141,-2.0147,-2.0148,-2.0139,-2.0137,-2.0152,-2.0154,-2.0155,-2.0185,-2.0158,-2.016,-2.016,-2.0224,-2.0225,-2.0226,0,0,0,0,0,0,-2.0113,-2.0116,-2.0144,-2.013,-2.0134,-2.0134,-2.0142,-2.0142,-2.0147,-2.0149,-2.0148,-2.0144,-2.0151,-2.0154,-2.0173,-2.0186,-2.016,-2.0161,-2.0223,-2.0224,-2.0225,-2.0245,0,0,0,0,0,0,-2.0112,-2.0116,-2.0126,-2.0131,-2.0134,-2.0161,-2.0143,-2.0143,-2.0149,-2.0148,-2.0153,-2.0153,-2.0151,-2.0171,-2.0174,-2.0187,-2.0162,-2.0221,-2.0223,-2.0225,-2.0243,-2.0247,-2.025,0,0,0,0,0,-2.0111,-2.0131,-2.0126,-2.013,-2.0146,-2.0161,-2.0164,-2.016,-2.015,-2.016,-2.0161,-2.0153,-2.0184,-2.0173,-2.0176,-2.019,-2.022,-2.0223,-2.0225,-2.0242,-2.0246,-2.025,0,0,0,0,0,0,-2.0127,-2.0131,-2.0126,-2.0149,-2.0155,-2.0159,-2.0171,-2.0165,-2.0174,-2.0172,-2.0167,-2.0169,-2.0189,-2.0191,-2.0179,-2.0215,-2.02,-2.0203,-2.0212,-2.0217,-2.022,-2.0219,-2.0164,0,0,0,0,0,-2.0133,-2.0145,-2.0148,-2.0167,-2.0171,-2.017,-2.0177,-2.0174,-2.018,-2.0183,-2.0185,-2.0191,-2.0202,-2.021,-2.022,-2.0244,-2.0245,-2.0255,-2.0258,-2.0261,-2.0264,-2.0277,-2.0281,-2.0233,-2.0233,-2.0233,0,0,-2.0146,-2.015,-2.0157,-2.0171,-2.0175,-2.0188,-2.0173,-2.0187,-2.0196,-2.0185,-2.0203,-2.0205,-2.0211,-2.0233,-2.0243,-2.0236,-2.0277,-2.0264,-2.0266,-2.0267,-2.0279,-2.0284,-2.0288,-2.0234,-2.0234,-2.0234,0,0,-2.0175,-2.018,-2.0196,-2.0201,-2.0208,-2.0208,-2.0212,-2.0217,-2.0218,-2.0237,-2.0228,-2.0239,-2.0258,-2.0264,-2.0269,-2.0301,-2.0294,-2.0305,-2.0323,-2.0335,-2.0339,-2.0342,-2.0354,-2.0358,-2.0307,-2.0307,-2.0307,0,-2.019,-2.0209,-2.0206,-2.022,-2.0226,-2.0217,-2.0234,-2.0239,-2.0249,-2.0253,-2.0246,-2.0269,-2.0273,-2.0296,-2.0304,-2.0309,-2.0313,-2.0304,-2.0339,-2.0342,-2.0345,-2.0356,-2.0361,-2.0308,-2.0308,-2.0308,-2.0308,0,-2.0227,-2.024,-2.0253,-2.0263,-2.0271,-2.0286,-2.0285,-2.0293,-2.029,-2.0291,-2.0309,-2.0314,-2.0325,-2.033,-2.0327,-2.0352,-2.0348,-2.034,-2.0325,-2.0351,-2.0361,-2.0365,-2.031,-2.031,-2.0309,-2.0309,0,0,-2.0267,-2.0276,-2.028,-2.0285,-2.0292,-2.0302,-2.0318,-2.0329,-2.0336,-2.0343,-2.0356,-2.0373,-2.0365,-2.0371,-2.0368,-2.0379,-2.0405,-2.037,-2.037,-2.0376,-2.0434,-2.044,-2.0444,-2.04,-2.0401,-2.0402,-2.0433,0,-2.0297,-2.0324,-2.0321,-2.0347,-2.0359,-2.0351,-2.0364,-2.037,-2.0371,-2.0381,-2.0383,-2.0394,-2.0384,-2.0387,-2.0398,-2.0399,-2.0416,-2.0397,-2.0412,-2.0413,-2.041,-2.045,-2.0456,-2.0485,-2.0437,-2.0438,-2.0438,0,-2.0336,-2.0345,-2.0371,-2.0377,-2.0382,-2.0394,-2.0404,-2.0414,-2.0421,-2.0421,-2.0428,-2.0423,-2.0439,-2.0425,-2.0446,-2.0433,-2.0439,-2.0441,-2.0442,-2.0443,-2.0427,-2.0452,-2.0494,-2.0499,-2.0444,-2.0444,-2.0443,0,-2.0362,-2.0381,-2.0399,-2.0403,-2.0411,-2.0419,-2.0423,-2.0429,-2.0436,-2.0444,-2.0449,-2.0459,-2.0465,-2.0473,-2.0472,-2.0461,-2.0494,-2.0479,-2.0494,-2.0494,-2.0501,-2.05,-2.0545,-2.0505,-2.0505,-2.0505,-2.0505,0,-2.0396,-2.0412,-2.0411,-2.0423,-2.0441,-2.0438,-2.0456,-2.0459,-2.0464,-2.0476,-2.0469,-2.048,-2.0477,-2.0488,-2.0487,-2.0505,-2.0508,-2.0508,-2.0508,-2.0509,-2.0509,-2.0512,-2.051,-2.0506,-2.0506,-2.0506,-2.0505,0,-2.0428,-2.0428,-2.0448,-2.0453,-2.0455,-2.0468,-2.0473,-2.0484,-2.0484,-2.0499,-2.0502,-2.0503,-2.0516,-2.0515,-2.0529,-2.0529,-2.0551,-2.0548,-2.0548,-2.0548,-2.0563,-2.0561,-2.0611,-2.0617,-2.0574,-2.0574,-2.0574,0,-2.045,-2.0463,-2.0469,-2.0477,-2.0481,-2.0493,-2.05,-2.0497,-2.0505,-2.0514,-2.0523,-2.0536,-2.0545,-2.0566,-2.0568,-2.0578,-2.0576,-2.0592,-2.0577,-2.0578,-2.0576,-2.0575,-2.0576,-2.0595,-2.0596,-2.0596,-2.0596,0,-2.0488,-2.0488,-2.0498,-2.0509,-2.0517,-2.0525,-2.0533,-2.0539,-2.0538,-2.0547,-2.056,-2.0567,-2.0582,-2.0594,-2.0604,-2.0607,-2.0602,-2.0601,-2.0605,-2.0606,-2.0606,-2.0606,-2.0556,-2.06,-2.06,-2.0599,-2.0599,-2.0599,-2.0516,-2.0527,-2.0533,-2.0545,-2.0551,-2.0558,-2.0568,-2.057,-2.0581,-2.0593,-2.0591,-2.0605,-2.0612,-2.0625,-2.063,-2.0641,-2.0635,-2.0641,-2.0642,-2.0644,-2.0645,-2.0605,-2.0643,-2.0643,-2.0643,-2.0643,-2.0642,0,-2.0554,-2.0558,-2.0569,-2.0579,-2.0589,-2.0583,-2.0591,-2.0599,-2.0612,-2.0619,-2.0628,-2.0643,-2.0655,-2.0658,-2.0669,-2.0677,-2.0675,-2.068,-2.068,-2.0681,-2.065,-2.0645,-2.0682,-2.0682,-2.0682,-2.0682,-2.0682,-2.0682,-2.0575,-2.0593,-2.0593,-2.0614,-2.0617,-2.0632,-2.0637,-2.0643,-2.0649,-2.0665,-2.0675,-2.0677,-2.0682,-2.0694,-2.0704,-2.0705,-2.0709,-2.0716,-2.0715,-2.0687,-2.0683,-2.0679,-2.0674,-2.0717,-2.0717,-2.0745,-2.0745,-2.0745]},{"header":{"parameterUnit":"m.s-1","parameterCategory":1,"la1":30.2991,"la2":30.254,"lo1":-89.0895,"lo2":-89.0444,"dy":0.0017,"dx":0.0017,"nx":28,"ny":28,"refTime":"2024-06-04T21:00:00:Z","depth":0,"parameterNumber":3,"parameterNumberName":"V-component_of_WINDS"},"data":[0,0,0,0,0,0,0,0,0,0,0,0,0,0,0,0,0,0,0,0,0,0,0,0,0,0,0,0,0,0,0,0,0,0,0,0,0,0,0,0,0,0,0,0,0,0,0,0,0,0,0,0,0,0,0,0,0,0,4.8894,4.8895,0,4.8931,4.8931,4.8932,4.8864,4.8862,4.886,4.8858,4.8891,4.8894,4.8897,0,0,0,0,0,0,0,0,0,0,0,0,0,4.8763,4.8765,4.8894,4.8895,4.8895,4.8931,4.8931,4.8932,4.8865,4.8862,4.8859,4.8857,4.889,4.8893,4.8897,0,0,0,0,0,0,0,0,0,0,0,0,0,4.8811,4.8766,4.8894,4.8866,4.8864,4.8931,4.8931,4.8932,4.8865,4.8862,4.8858,4.8855,4.8889,4.8893,4.8898,4.8992,0,0,4.8911,4.8913,0,0,0,0,0,0,0,0,4.8809,4.8816,4.887,4.8868,4.8866,4.889,4.8897,4.8952,4.8866,4.8865,4.8858,4.8854,4.8893,4.8897,4.8911,4.8994,4.8995,4.8912,4.8914,4.8916,4.8917,0,0,0,0,0,0,0,4.8805,4.8814,4.8909,4.8871,4.8868,4.885,4.8854,4.8907,4.8897,4.8864,4.886,4.8865,4.8891,4.8907,4.8911,4.8995,4.8911,4.8915,4.8918,4.892,4.9157,4.916,0,0,0,0,0,0,4.8806,4.8812,4.8907,4.891,4.8829,4.8855,4.8859,4.8885,4.8896,4.8895,4.8868,4.8862,4.8901,4.8906,4.8912,4.9023,4.8916,4.892,4.8923,4.9153,4.9158,4.9162,0,0,0,0,0,0,4.8804,4.8815,4.8906,4.886,4.887,4.8861,4.8891,4.8888,4.8903,4.8899,4.8896,4.8886,4.8898,4.8906,4.8973,4.9023,4.8922,4.8926,4.9149,4.9155,4.916,4.9245,0,0,0,0,0,0,4.88,4.8815,4.8851,4.8861,4.8873,4.8967,4.8894,4.8891,4.8912,4.8904,4.8915,4.8914,4.8896,4.8967,4.8977,4.9027,4.893,4.9144,4.9151,4.9158,4.9238,4.9253,4.9266,0,0,0,0,0,4.8796,4.8873,4.8854,4.8866,4.8918,4.897,4.8977,4.8956,4.8916,4.8952,4.8949,4.8913,4.9016,4.8974,4.8985,4.9037,4.9141,4.9149,4.9157,4.9231,4.925,4.9265,0,0,0,0,0,0,4.8868,4.8874,4.8852,4.8936,4.8953,4.8959,4.9004,4.8977,4.9005,4.8996,4.8969,4.8972,4.9044,4.9047,4.9,4.9129,4.9072,4.9082,4.9124,4.9141,4.9155,4.9152,4.8934,0,0,0,0,0,4.8894,4.8937,4.894,4.9013,4.9023,4.9012,4.9034,4.9017,4.9033,4.904,4.9042,4.9058,4.9094,4.9118,4.9151,4.9239,4.9239,4.928,4.9294,4.9306,4.9315,4.936,4.9378,4.9188,4.9188,4.9188,0,0,4.8948,4.8956,4.8985,4.9028,4.9039,4.9083,4.9019,4.9068,4.91,4.9047,4.911,4.9113,4.9129,4.9207,4.9241,4.9212,4.9368,4.9316,4.9325,4.9328,4.9371,4.9389,4.9404,4.9194,4.9193,4.9192,0,0,4.9067,4.9079,4.9141,4.9154,4.9173,4.9166,4.9181,4.9191,4.9191,4.9255,4.9216,4.9253,4.9316,4.9329,4.9344,4.947,4.9437,4.9481,4.9553,4.9598,4.9613,4.9626,4.967,4.9686,4.949,4.9491,4.9491,0,4.9131,4.9197,4.9176,4.9228,4.9247,4.9204,4.9266,4.9279,4.9307,4.9321,4.9289,4.9367,4.9375,4.9454,4.9485,4.9499,4.9514,4.9479,4.9613,4.9626,4.9638,4.9679,4.9696,4.9496,4.9495,4.9495,4.9494,0,4.9273,4.932,4.9367,4.9397,4.9422,4.9479,4.9465,4.9493,4.9474,4.947,4.9535,4.9543,4.9577,4.9595,4.9576,4.9672,4.9653,4.9618,4.9559,4.9661,4.9699,4.9715,4.9503,4.9501,4.95,4.9498,0,0,4.9438,4.9457,4.9474,4.9487,4.9506,4.954,4.9595,4.9629,4.9653,4.9674,4.9718,4.9773,4.974,4.9757,4.974,4.978,4.9877,4.9739,4.9738,4.9763,4.9982,5.0008,5.0026,4.9857,4.986,4.9862,4.998,0,4.9556,4.9651,4.9634,4.9726,4.9768,4.9728,4.9775,4.9791,4.9788,4.9822,4.9819,4.9858,4.9813,4.9822,4.986,4.9858,4.9921,4.9849,4.9896,4.9898,4.9892,5.0046,5.0074,5.0184,4.9995,4.9998,4.9999,0,4.9706,4.9734,4.9831,4.9842,4.9859,4.9902,4.9932,4.9966,4.9983,4.9978,4.9998,4.9974,5.0026,4.9969,5.0041,4.9992,5.0011,5.0013,5.0016,5.0018,4.9954,5.0051,5.0219,5.0235,5.0023,5.0021,5.0019,0,4.9814,4.9877,4.9942,4.9955,4.9971,5.0002,5.0009,5.0023,5.0045,5.0071,5.0084,5.0116,5.0133,5.0157,5.0141,5.0101,5.0216,5.0157,5.0212,5.0213,5.0236,5.0235,5.0408,5.0251,5.0251,5.0251,5.0251,0,4.9947,5.0007,4.9992,5.0032,5.0098,5.0078,5.0143,5.0146,5.0159,5.0198,5.0165,5.0202,5.018,5.0215,5.0203,5.0264,5.0272,5.0269,5.0265,5.0271,5.0271,5.0281,5.0273,5.0255,5.0254,5.0253,5.0253,0,5.0079,5.0071,5.014,5.015,5.0154,5.0202,5.0209,5.0246,5.0242,5.0292,5.0303,5.0296,5.0335,5.0323,5.0365,5.0357,5.0434,5.0421,5.0429,5.0425,5.048,5.0475,5.0665,5.0688,5.0518,5.052,5.0521,0,5.0163,5.0208,5.0224,5.0248,5.0259,5.0299,5.0321,5.0303,5.0328,5.0351,5.0385,5.0422,5.0451,5.0516,5.0514,5.0546,5.0532,5.0597,5.0536,5.0541,5.0531,5.0528,5.0532,5.0608,5.061,5.0611,5.0613,0,5.0313,5.0307,5.0341,5.0374,5.0402,5.0427,5.0449,5.0471,5.0454,5.0483,5.0524,5.0547,5.0591,5.0627,5.0657,5.0663,5.0635,5.0632,5.0646,5.0652,5.0655,5.0653,5.046,5.0627,5.0626,5.0625,5.0624,5.0623,5.0422,5.0461,5.0478,5.0517,5.0532,5.0553,5.0588,5.0589,5.0623,5.0659,5.0646,5.0693,5.0708,5.0745,5.0756,5.0791,5.0766,5.0787,5.0792,5.0797,5.0804,5.0651,5.0797,5.0796,5.0796,5.0795,5.0795,0,5.0569,5.0578,5.0615,5.0647,5.0678,5.0651,5.0673,5.07,5.0742,5.076,5.0789,5.0836,5.0872,5.0873,5.0907,5.0935,5.0923,5.0944,5.0941,5.0942,5.0825,5.0808,5.0953,5.0953,5.0953,5.0953,5.0953,5.0953,5.0649,5.0712,5.0709,5.0779,5.0787,5.0834,5.0849,5.0868,5.0882,5.0937,5.0967,5.0968,5.0979,5.1013,5.1044,5.1043,5.1056,5.1083,5.1077,5.0967,5.0951,5.0936,5.092,5.1086,5.1086,5.1191,5.1192,5.1193]}]]